Home   Weather   Sheffield   Past weeks

Flag for United Kingdom Past Weather in Sheffield, England, United Kingdom — Yesterday and Last 2 Weeks

46 °F

Passing clouds.

Feels Like: 41 °F
Forecast: 42 / 51 °F
Wind: 13 mph from Northeast

Location: Manchester Airport

Current Time: Oct 23, 2016 at 9:00:59 AM

Latest Report: Oct 23, 2016 at 8:20 AM

Visibility: N/A

Pressure: 29.98 "Hg

Humidity: 82%

Dew Point: 41 °F

Location of SheffieldLocation

Past Weather in Sheffield — Graph


Sheffield Temperature Yesterday

Maximum temperature yesterday: 55 °F (at 2:20 PM)
Minimum temperature yesterday: 37 °F (at 2:50 AM)
Average temperature yesterday: 45 °F

High & Low Weather Summary for the Past Weeks

High61 °F (Oct 8, 2:20 PM)100% (Oct 11, 2:50 AM)30.45 "Hg (Oct 11, 2:50 AM)
Low36 °F (Oct 23, 2:20 AM)55% (Oct 8, 2:20 PM)29.62 "Hg (Oct 15, 6:20 AM)
Average50 °F83%30.09 "Hg
* Reported Oct 8 7:20 AM — Oct 23 7:50 AM, Sheffield, Weather by CustomWeather, © 2016

Note: Actual official high and low records may vary slightly from our data, if they occured in-between our weather recording intervals... More about our weather records


Sheffield Weather History for the Previous 24 Hours

Scroll right to see more
Time TempWeatherWind HumidityBarometerVisibility
7:50 AM
Sun, Oct 23
48 °FPassing clouds.13 mph82%29.98 "HgN/A
7:20 AM46 °FPartly cloudy.12 mph87%29.98 "HgN/A
6:50 AM48 °FLight rain. Partly cloudy.13 mph87%29.98 "HgN/A
6:20 AM46 °FPartly cloudy.10 mph93%29.98 "HgN/A
5:50 AM46 °FPartly cloudy.10 mph93%29.98 "HgN/A
5:20 AM46 °FPassing clouds.9 mph93%29.98 "HgN/A
4:50 AM45 °FPassing clouds.10 mph93%29.98 "HgN/A
4:20 AM41 °FPassing clouds.8 mph100%29.98 "HgN/A
3:50 AM39 °FPassing clouds.6 mph100%29.98 "HgN/A
3:20 AM37 °FPassing clouds.No wind93%29.98 "HgN/A
2:50 AM39 °FClear.7 mph93%29.98 "Hg10 mi
2:20 AM36 °FClear.2 mph93%29.98 "Hg10 mi
1:50 AM37 °FPartly cloudy.3 mph100%30.01 "HgN/A
1:20 AM37 °FPassing clouds.2 mph93%30.01 "HgN/A
12:50 AM39 °FPassing clouds.5 mph100%30.01 "HgN/A
12:20 AM37 °FClear.No wind93%30.01 "Hg10 mi
11:50 PM
Sat, Oct 22
41 °FClear.No wind100%30.01 "Hg10 mi
11:20 PM39 °FClear.No wind93%30.01 "Hg10 mi
10:50 PM41 °FClear.2 mph93%30.01 "Hg10 mi
10:20 PM43 °FQuite cool.8 mph87%30.04 "HgN/A
9:50 PM43 °FClear.9 mph93%30.04 "Hg10 mi
9:20 PM43 °FClear.9 mph87%30.04 "Hg10 mi
8:50 PM43 °FClear.8 mph87%30.04 "Hg10 mi
8:20 PM46 °FClear.9 mph82%30.04 "Hg10 mi
7:50 PM45 °FClear.8 mph87%30.04 "Hg10 mi
7:20 PM48 °FPassing clouds.9 mph82%30.04 "HgN/A
6:50 PM48 °FPassing clouds.5 mph82%30.04 "HgN/A
6:20 PM50 °FMostly cloudy.8 mph76%30.04 "HgN/A
5:50 PM50 °FBroken clouds.9 mph82%30.04 "HgN/A
5:20 PM52 °FScattered clouds.8 mph72%30.04 "HgN/A
4:50 PM50 °FPassing clouds.9 mph76%30.04 "HgN/A
4:20 PM52 °FBroken clouds.9 mph72%30.04 "HgN/A
3:50 PM52 °FScattered clouds.14 mph72%30.04 "HgN/A
3:20 PM54 °FPassing clouds.12 mph63%30.04 "HgN/A
2:50 PM55 °FPassing clouds.13 mph59%30.04 "HgN/A
2:20 PM55 °FPassing clouds.7 mph63%30.07 "HgN/A
1:50 PM54 °FPassing clouds.10 mph67%30.07 "HgN/A
1:20 PM52 °FScattered clouds.9 mph72%30.07 "HgN/A
12:50 PM54 °FPassing clouds.12 mph67%30.07 "HgN/A
12:20 PM54 °FPassing clouds.10 mph72%30.07 "HgN/A
11:50 AM50 °FScattered clouds.8 mph82%30.09 "HgN/A
11:20 AM50 °FScattered clouds.9 mph88%30.09 "HgN/A
10:50 AM50 °FScattered clouds.8 mph88%30.09 "HgN/A
10:20 AM48 °FPassing clouds.8 mph94%30.09 "HgN/A
9:50 AM48 °FPassing clouds.8 mph87%30.09 "HgN/A
9:20 AM46 °FPassing clouds.10 mph93%30.09 "HgN/A
Weather by CustomWeather, © 2016

See weather overviewHow to use our weather pages